Notices

What's New in latest Release from April 7th, 2021:

- Updated Glossary, including Speed of Maximum Gust, and Total Hourly Precipitation

- Updated national and regional climate services offices contacts and prices information

- Addition of station inventory lists for 1981-2010, 1971-2000, and 1961-1990 Normals.

If you haven't already, please take our survey and provide feedback about our website: https://eccc.sondage-survey.ca/f/LanguageSelection.aspx?s=442ca660-fcf1-47c0-95a9-59707d6fd709

Hourly Data Report for May 08, 2021

TORONTO CITY
ONTARIO
Current Station Operator: ECCC - MSC

43°40'00.000" N
79°24'00.000" W
112.50 m
6158355
71508
XTO

Download Data

Hourly Data (May 2021)
Hourly Data Report for May 8, 2021
TIME
LST
Temp Definition
°C
Dew Point Definition
°C
Rel Hum Definition
%
Precip. Amount Definition
mm

Wind Dir Definition
10's deg

Wind Spd Definition
km/h
Visibility Definition
km
Stn Press Definition
kPa
Hmdx Definition


Wind Chill Definition


Weather Definition


00:00 5.8 2.6 80 0.0       99.86     LegendNANA
01:00 5.3 2.0 79 0.0       99.83     LegendNANA
02:00 4.6 1.7 82 0.0       99.80     LegendNANA
03:00 4.9 2.4 84 0.0       99.79     LegendNANA
04:00 5.1 0.5 72 0.0       99.81     LegendNANA
05:00 5.2 0.2 70 0.0       99.82     LegendNANA
06:00 5.3 1.0 74 0.0       99.86     LegendNANA
07:00 6.8 1.6 69 0.0       99.91     LegendNANA
08:00 8.5 2.1 64 0.0       99.93     LegendNANA
09:00 10.0 2.1 58 0.0       99.94     LegendNANA
10:00 12.5 2.3 50 0.0       99.96     LegendNANA
11:00 13.9 3.4 49 0.0       99.96     LegendNANA
12:00 12.3 1.6 48 0.0       99.99     LegendNANA
13:00 9.8 5.1 72 0.4       100.00     LegendNANA
14:00 11.2 2.2 54 0.0       100.04     LegendNANA
15:00 12.3 2.7 52 0.0       100.03     LegendNANA
16:00 14.3 3.4 48 0.0       100.04     LegendNANA
17:00 12.6 3.0 52 0.0       100.10     LegendNANA
18:00 13.0 -2.2 35 0.0       100.15     LegendNANA
19:00 11.2 2.3 54 0.0       100.22     LegendNANA
20:00 10.8 -1.0 44 0.0       100.29     LegendNANA
21:00 10.5 -0.1 48 0.0       100.34     LegendNANA
22:00 9.7 1.0 55 0.0       100.34     LegendNANA
23:00 8.9 0.8 57 0.0       100.37     LegendNANA

Notes on Data Quality.

Legend

  • E = Estimated
  • M = Missing
  • NA = Not Available*
  • [empty] = Indicates an unobserved value
Date modified: